Flag for Germany Weather past 2 weeks in Westerstede, Lower Saxony, Germany

Now
63 °F

Mild.


Feels Like: 63 °F
Forecast: 55 / 83 °F
Wind: 8 mph from East

Location: Wittmundhaven

Current Time: Jun 30, 2015 at 10:22:45 PM

Latest Report: Jun 30, 2015 at 9:20 PM


Visibility: N/A

Pressure: 30.21 "Hg

Humidity: 64%

Dew point: 50 °F

Location of WesterstedeLocation

Historic Weather in Westerstede — Graph

°F

Westerstede temperature yesterday

Maximum temperature yesterday: 72 °F (at 1:20 PM)
Minimum temperature yesterday: 55 °F (at 3:20 AM)
Average temperature yesterday: 63 °F

Past Weeks' High & Low Weather Summary

 TemperatureHumidityPressure
High72 °F (Jun 25, 1:20 PM)100% (Jun 18, 1:20 AM)30.30 "Hg (Jun 18, 1:20 AM)
Low43 °F (Jun 17, 4:20 AM)44% (Jun 28, 2:20 PM)29.65 "Hg (Jun 22, 7:20 PM)
Average57 °F79%30.04 "Hg
* Reported Jun 15 8:20 PM — Jun 30 8:20 PM, Westerstede, Weather by CustomWeather, © 2015

Note: Actual official high and low records may vary slightly from our data, if they occured in-between our weather recording intervals... More about our weather records

Advertising

Westerstede weather history for previous 24 hours

 ConditionsComfort  
Time TempWeatherWind HumidityBarometerVisibility
8:20 PM
Tue, Jun 30
66 °FMild.10 mph52%30.21 "HgN/A
6:20 PM70 °FMild.13 mph46%30.21 "HgN/A
4:20 PM68 °FPassing clouds.9 mph60%30.21 "HgN/A
3:20 PM70 °FPassing clouds.8 mph57%30.21 "HgN/A
2:20 PM70 °FPassing clouds.8 mph57%30.21 "HgN/A
1:20 PM70 °FPassing clouds.6 mph57%30.21 "HgN/A
12:20 PM68 °FPassing clouds.5 mph60%30.24 "HgN/A
11:20 AM68 °FPassing clouds.5 mph56%30.24 "HgN/A
10:20 AM66 °FPassing clouds.5 mph56%30.24 "HgN/A
9:20 AM64 °FPassing clouds.2 mph64%30.24 "HgN/A
8:20 AM63 °FPassing clouds.2 mph73%30.21 "HgN/A
7:20 AM57 °FPassing clouds.No wind88%30.21 "HgN/A
6:20 AM54 °FCool.No wind94%30.21 "Hg5 mi
5:20 AM50 °FCool.No wind100%30.21 "Hg0 mi
4:20 AM50 °FCool.No wind94%30.21 "Hg2 mi
3:20 AM52 °FCool.1 mph94%30.21 "Hg1 mi
2:20 AM54 °FCool.3 mph94%30.21 "Hg4 mi
1:20 AM54 °FCool.No wind94%30.21 "Hg5 mi
12:20 AM57 °FCool.2 mph82%30.21 "HgN/A
11:20 PM
Mon, Jun 29
57 °FCool.1 mph82%30.21 "HgN/A
10:20 PM61 °FCool.3 mph68%30.21 "HgN/A
Weather by CustomWeather, © 2015

See weather overviewHow to use our weather pages